[[{"header":{"parameterUnit":"m.s-1","parameterCategory":2,"la1":30.2991,"la2":30.254,"lo1":-89.0895,"lo2":-89.0444,"dy":0.0017,"dx":0.0017,"nx":28,"ny":28,"refTime":"2024-03-16T09:00:00:Z","depth":"0","parameterNumber":2,"parameterNumberName":"U-component_of_CURRENTS"},"data":[0,0,0,0,0,0,0,0,0,0,0,0,0,0,0,0,0,0,0,0,0,0,0,0,0,0,0,0,0,0,0,0,0,0,0,0,0,0,0,0,0,0,0,0,0,0,0,0,0,0,0,0,0,0,0,0,0,0,0.1777,0.1777,0,0.1817,0.1817,0.1818,0.1817,0.1817,0.1817,0.1816,0.1813,0.1814,0.1814,0,0,0,0,0,0,0,0,0,0,0,0,0,0.1701,0.1703,0.1777,0.1778,0.1778,0.1817,0.1817,0.1818,0.1817,0.1817,0.1817,0.1816,0.1813,0.1814,0.1814,0,0,0,0,0,0,0,0,0,0,0,0,0,0.1735,0.1703,0.1777,0.1784,0.1785,0.1817,0.1817,0.1818,0.1818,0.1817,0.1816,0.1816,0.1813,0.1814,0.1814,0.1827,0,0,0.1815,0.1815,0,0,0,0,0,0,0,0,0.1733,0.1738,0.1782,0.1784,0.1785,0.1813,0.179,0.1819,0.1818,0.1803,0.1816,0.1816,0.1811,0.1812,0.1818,0.1827,0.1826,0.1815,0.1815,0.1815,0.1816,0,0,0,0,0,0,0,0.1731,0.1736,0.1791,0.1783,0.1785,0.1786,0.179,0.1795,0.1807,0.1804,0.1805,0.1813,0.1811,0.1818,0.1818,0.1826,0.1815,0.1815,0.1816,0.1816,0.1877,0.1879,0,0,0,0,0,0,0.1731,0.1734,0.179,0.1792,0.176,0.1788,0.1792,0.1803,0.1808,0.1809,0.1813,0.1813,0.1817,0.1818,0.1818,0.186,0.1815,0.1816,0.1816,0.1876,0.1878,0.1879,0,0,0,0,0,0,0.1729,0.1735,0.1788,0.1765,0.1772,0.179,0.1802,0.1804,0.1814,0.1816,0.1815,0.1821,0.1817,0.1817,0.1837,0.1859,0.1816,0.1816,0.1874,0.1876,0.1878,0.1927,0,0,0,0,0,0,0.1727,0.1735,0.1741,0.1765,0.1774,0.1813,0.1803,0.1806,0.182,0.182,0.1822,0.1821,0.1817,0.1836,0.1837,0.1858,0.1817,0.1872,0.1875,0.1878,0.1923,0.193,0.1936,0,0,0,0,0,0.1724,0.1736,0.1741,0.1748,0.1783,0.1814,0.1818,0.1827,0.1821,0.1832,0.1838,0.1821,0.1854,0.1838,0.1838,0.186,0.1871,0.1874,0.1878,0.1921,0.1929,0.1936,0,0,0,0,0,0,0.1702,0.1738,0.1744,0.1765,0.1791,0.1814,0.1825,0.1831,0.1845,0.1843,0.1838,0.1839,0.1863,0.1858,0.1841,0.1887,0.186,0.1864,0.1893,0.1901,0.1907,0.1907,0.1817,0,0,0,0,0,0.1703,0.1722,0.1755,0.1771,0.1785,0.1806,0.1818,0.1828,0.1844,0.185,0.1854,0.1862,0.1878,0.1885,0.1893,0.1919,0.1928,0.1935,0.1941,0.1946,0.1949,0.1984,0.1994,0.189,0.189,0.189,0,0,0.1697,0.172,0.1729,0.1768,0.1786,0.1819,0.1812,0.1836,0.1862,0.1847,0.1878,0.1882,0.1889,0.1919,0.193,0.1918,0.1985,0.195,0.1955,0.1954,0.1989,0.1999,0.2008,0.1892,0.1891,0.1891,0,0,0.1702,0.1719,0.1741,0.1769,0.1806,0.1826,0.1835,0.1866,0.1877,0.1909,0.1908,0.1928,0.1947,0.1963,0.1972,0.2019,0.2015,0.2022,0.2057,0.2093,0.2102,0.2109,0.2151,0.2161,0.2028,0.2029,0.2029,0,0.1692,0.1731,0.1751,0.1785,0.1812,0.1832,0.1866,0.1886,0.1919,0.1936,0.1923,0.197,0.197,0.2018,0.2034,0.2033,0.2054,0.2026,0.2101,0.2109,0.2116,0.2156,0.2167,0.2031,0.2031,0.2031,0.203,0,0.1723,0.1755,0.1771,0.1825,0.1854,0.1886,0.1923,0.1951,0.1964,0.1984,0.2026,0.2033,0.2063,0.2068,0.2064,0.212,0.2121,0.2102,0.2079,0.2129,0.2169,0.218,0.2035,0.2034,0.2033,0.2033,0,0,0.1698,0.1777,0.1784,0.1816,0.1879,0.1906,0.1956,0.2009,0.2039,0.2066,0.2108,0.2135,0.2138,0.2148,0.215,0.2177,0.2245,0.2163,0.2164,0.2201,0.2337,0.2387,0.2404,0.2242,0.2243,0.2245,0.235,0,0.1718,0.1784,0.1822,0.1885,0.1924,0.1965,0.201,0.2057,0.2088,0.2132,0.2152,0.2185,0.217,0.2184,0.2215,0.2232,0.2274,0.2219,0.2285,0.2288,0.2323,0.2418,0.2354,0.2447,0.2361,0.2363,0.2364,0,0.1738,0.1784,0.1845,0.1923,0.1942,0.1979,0.2054,0.2097,0.2163,0.2184,0.2229,0.2243,0.2298,0.2264,0.2344,0.2312,0.2334,0.2344,0.2348,0.2383,0.2359,0.2381,0.247,0.241,0.2381,0.2379,0.2378,0,0.1715,0.18,0.1847,0.1875,0.1962,0.1993,0.204,0.2109,0.2147,0.2217,0.2249,0.2312,0.2339,0.2384,0.2416,0.2387,0.2495,0.2457,0.253,0.2533,0.2486,0.2483,0.2519,0.2521,0.252,0.252,0.252,0,0.1724,0.1761,0.1837,0.1863,0.1914,0.1981,0.2033,0.2087,0.2164,0.2213,0.227,0.2325,0.2367,0.2433,0.2456,0.2547,0.2539,0.2565,0.2576,0.2505,0.2502,0.2451,0.2423,0.2524,0.2523,0.2522,0.2522,0,0.1687,0.1742,0.1792,0.1876,0.1901,0.1932,0.2019,0.2054,0.2139,0.2207,0.2233,0.2345,0.2455,0.251,0.2587,0.2605,0.2619,0.27,0.2623,0.2625,0.2644,0.2622,0.2585,0.2497,0.2814,0.2817,0.2818,0,0.1676,0.1699,0.1774,0.1791,0.1824,0.1881,0.1913,0.2017,0.206,0.2222,0.2252,0.2396,0.2502,0.2667,0.2737,0.2835,0.2702,0.2798,0.2735,0.2673,0.2654,0.2517,0.2433,0.2692,0.2692,0.2693,0.2693,0,0.1645,0.1664,0.17,0.1731,0.1762,0.1803,0.1868,0.1903,0.2031,0.2113,0.2258,0.2374,0.2598,0.2706,0.2845,0.2876,0.2684,0.2814,0.2755,0.2589,0.2433,0.2343,0.2597,0.2697,0.2697,0.2696,0.2696,0.2696,0.16,0.1606,0.1641,0.1666,0.1697,0.1721,0.174,0.1832,0.1914,0.2059,0.2198,0.2375,0.2579,0.2813,0.2834,0.2843,0.2783,0.2756,0.2745,0.2619,0.2502,0.279,0.2899,0.29,0.29,0.2901,0.2901,0,0.1536,0.1554,0.1576,0.1597,0.1601,0.1648,0.1703,0.1727,0.1813,0.1999,0.2144,0.2384,0.2533,0.2682,0.2823,0.2774,0.2587,0.2675,0.2435,0.2361,0.2636,0.2598,0.2639,0.2639,0.2639,0.2639,0.2639,0.264,0.1501,0.1495,0.1514,0.1501,0.1518,0.1514,0.1537,0.1602,0.1722,0.1912,0.2091,0.226,0.2532,0.2729,0.2749,0.2673,0.2436,0.2361,0.2305,0.2489,0.2493,0.2496,0.2452,0.2462,0.2462,0.19,0.1896,0.1894]},{"header":{"parameterUnit":"m.s-1","parameterCategory":2,"la1":30.2991,"la2":30.254,"lo1":-89.0895,"lo2":-89.0444,"dy":0.0017,"dx":0.0017,"nx":28,"ny":28,"refTime":"2024-03-16T09:00:00:Z","depth":"0","parameterNumber":3,"parameterNumberName":"V-component_of_CURRENTS"},"data":[0,0,0,0,0,0,0,0,0,0,0,0,0,0,0,0,0,0,0,0,0,0,0,0,0,0,0,0,0,0,0,0,0,0,0,0,0,0,0,0,0,0,0,0,0,0,0,0,0,0,0,0,0,0,0,0,0,0,-0.0508,-0.0509,0,-0.0571,-0.0572,-0.0573,-0.0619,-0.0619,-0.0619,-0.0619,-0.0725,-0.0727,-0.073,0,0,0,0,0,0,0,0,0,0,0,0,0,-0.0468,-0.0469,-0.0508,-0.0509,-0.0509,-0.0571,-0.0572,-0.0573,-0.0619,-0.0619,-0.0619,-0.062,-0.0724,-0.0727,-0.073,0,0,0,0,0,0,0,0,0,0,0,0,0,-0.0505,-0.0469,-0.0508,-0.0539,-0.0542,-0.0571,-0.0572,-0.0573,-0.0619,-0.0619,-0.0619,-0.062,-0.0723,-0.0727,-0.0731,-0.0746,0,0,-0.0742,-0.0744,0,0,0,0,0,0,0,0,-0.0503,-0.0507,-0.0533,-0.0536,-0.054,-0.0586,-0.0596,-0.0633,-0.0618,-0.0591,-0.0619,-0.062,-0.0681,-0.0689,-0.0701,-0.0751,-0.0756,-0.0743,-0.0745,-0.0747,-0.0748,0,0,0,0,0,0,0,-0.05,-0.0504,-0.0534,-0.0534,-0.0538,-0.0563,-0.0568,-0.0604,-0.0635,-0.0593,-0.0596,-0.0601,-0.0684,-0.0697,-0.0704,-0.0757,-0.0743,-0.0746,-0.0748,-0.075,-0.084,-0.084,0,0,0,0,0,0,-0.0487,-0.0502,-0.0532,-0.0536,-0.0521,-0.0563,-0.0569,-0.0572,-0.0634,-0.0643,-0.0601,-0.0603,-0.069,-0.0699,-0.0708,-0.0749,-0.0747,-0.075,-0.0753,-0.084,-0.084,-0.084,0,0,0,0,0,0,-0.0486,-0.0489,-0.053,-0.0519,-0.0526,-0.0563,-0.0566,-0.0573,-0.0586,-0.0639,-0.0649,-0.0606,-0.0691,-0.0702,-0.0741,-0.0753,-0.0752,-0.0756,-0.084,-0.084,-0.084,-0.082,0,0,0,0,0,0,-0.0484,-0.0488,-0.0484,-0.0518,-0.0526,-0.0541,-0.0566,-0.0574,-0.0588,-0.0592,-0.0647,-0.0657,-0.0692,-0.0734,-0.0744,-0.0758,-0.0759,-0.084,-0.084,-0.084,-0.0821,-0.082,-0.0819,0,0,0,0,0,-0.0483,-0.0472,-0.0483,-0.0487,-0.052,-0.0541,-0.0547,-0.0576,-0.0587,-0.059,-0.0631,-0.0655,-0.0743,-0.0738,-0.0749,-0.0765,-0.084,-0.084,-0.084,-0.0821,-0.082,-0.0819,0,0,0,0,0,0,-0.0448,-0.0477,-0.049,-0.0487,-0.051,-0.0548,-0.055,-0.0571,-0.0604,-0.0608,-0.0659,-0.0672,-0.0709,-0.0735,-0.0728,-0.0789,-0.0795,-0.0797,-0.0776,-0.0775,-0.0774,-0.078,-0.0762,0,0,0,0,0,-0.0438,-0.044,-0.0472,-0.0469,-0.0478,-0.0513,-0.0525,-0.0545,-0.0578,-0.0593,-0.0633,-0.0676,-0.0719,-0.0744,-0.0779,-0.0814,-0.0835,-0.083,-0.0829,-0.0828,-0.084,-0.0879,-0.0882,-0.0841,-0.0841,-0.0841,0,0,-0.0423,-0.0439,-0.0439,-0.0462,-0.0482,-0.0498,-0.0521,-0.0534,-0.0554,-0.06,-0.0636,-0.0672,-0.0725,-0.0765,-0.0784,-0.079,-0.0846,-0.0828,-0.0827,-0.084,-0.0879,-0.0883,-0.0887,-0.0841,-0.0841,-0.0841,0,0,-0.0396,-0.0407,-0.0404,-0.0423,-0.0449,-0.0476,-0.0477,-0.0515,-0.0538,-0.0571,-0.0614,-0.0657,-0.0712,-0.0762,-0.0793,-0.0807,-0.0835,-0.0814,-0.0823,-0.086,-0.0864,-0.0868,-0.0879,-0.0884,-0.0818,-0.0818,-0.0818,0,-0.0375,-0.0382,-0.0405,-0.0412,-0.0429,-0.0465,-0.0474,-0.0502,-0.0549,-0.0574,-0.0576,-0.0674,-0.0715,-0.0786,-0.0796,-0.0807,-0.0823,-0.0824,-0.0859,-0.0864,-0.0868,-0.0879,-0.0885,-0.0817,-0.0817,-0.0818,-0.0818,0,-0.0356,-0.0363,-0.0361,-0.0389,-0.0409,-0.0418,-0.0463,-0.0487,-0.0516,-0.0552,-0.061,-0.0667,-0.0727,-0.0748,-0.0783,-0.0841,-0.0839,-0.0848,-0.0862,-0.0871,-0.0882,-0.0888,-0.0816,-0.0816,-0.0817,-0.0817,0,0,-0.0306,-0.0341,-0.0341,-0.0354,-0.0399,-0.0412,-0.045,-0.0499,-0.0521,-0.0571,-0.0607,-0.0694,-0.0721,-0.0759,-0.0805,-0.0851,-0.0891,-0.0867,-0.0869,-0.0878,-0.0957,-0.09,-0.0902,-0.0908,-0.0909,-0.091,-0.0944,0,-0.0286,-0.0291,-0.0323,-0.0338,-0.0349,-0.0401,-0.0429,-0.0478,-0.0522,-0.056,-0.0633,-0.0676,-0.0726,-0.0748,-0.0807,-0.0861,-0.0911,-0.088,-0.0948,-0.095,-0.0899,-0.0909,-0.0849,-0.087,-0.0951,-0.0952,-0.0953,0,-0.0261,-0.0271,-0.0279,-0.0319,-0.0328,-0.0342,-0.0399,-0.043,-0.0502,-0.0533,-0.06,-0.0647,-0.0728,-0.0755,-0.0872,-0.0848,-0.091,-0.0956,-0.0958,-0.0922,-0.0907,-0.0879,-0.0879,-0.1031,-0.0963,-0.0962,-0.0961,0,-0.0218,-0.0244,-0.025,-0.0263,-0.031,-0.0324,-0.0351,-0.0417,-0.0431,-0.0511,-0.0518,-0.0627,-0.0651,-0.0758,-0.0845,-0.0864,-0.0951,-0.0982,-0.0996,-0.0992,-0.0964,-0.0954,-0.1122,-0.108,-0.108,-0.108,-0.108,0,-0.0191,-0.0195,-0.0224,-0.0225,-0.0223,-0.0276,-0.0282,-0.033,-0.0373,-0.0361,-0.049,-0.0493,-0.0655,-0.0717,-0.0825,-0.0905,-0.0931,-0.1002,-0.1003,-0.0951,-0.094,-0.1089,-0.1183,-0.1081,-0.1081,-0.1081,-0.1081,0,-0.0148,-0.0168,-0.0169,-0.0199,-0.0199,-0.0197,-0.021,-0.0213,-0.0269,-0.0254,-0.0268,-0.0382,-0.0456,-0.0602,-0.0747,-0.0846,-0.1013,-0.0977,-0.0886,-0.0877,-0.1036,-0.1128,-0.1284,-0.1348,-0.101,-0.1008,-0.1007,0,-0.0131,-0.0128,-0.0129,-0.0109,-0.0116,-0.0112,-0.0101,-0.015,-0.0131,-0.0162,-0.0132,-0.022,-0.0232,-0.043,-0.0618,-0.0783,-0.0959,-0.0868,-0.0912,-0.1042,-0.1148,-0.1218,-0.1266,-0.0863,-0.0861,-0.0859,-0.0858,0,-0.0099,-0.0095,-0.0087,-0.0035,-0.001,0.0015,0.0042,0.0084,0.0059,0.0095,0.015,0.0137,-0.0065,-0.0199,-0.0461,-0.0603,-0.0955,-0.0838,-0.1015,-0.1084,-0.1133,-0.1192,-0.0833,-0.0843,-0.0844,-0.0846,-0.0846,-0.0847,-0.006,-0.0037,-0.0005,0.0048,0.0089,0.0166,0.0233,0.029,0.0381,0.0488,0.043,0.0483,0.0183,-0.0158,-0.0392,-0.0802,-0.085,-0.093,-0.104,-0.1105,-0.1153,-0.0742,-0.0725,-0.0726,-0.0727,-0.0728,-0.0728,0,0.0007,0.0036,0.0079,0.0166,0.0251,0.0244,0.0351,0.0449,0.063,0.0724,0.0818,0.0731,0.0375,-0.0058,-0.0615,-0.0935,-0.1092,-0.1138,-0.1262,-0.1311,-0.0975,-0.0956,-0.0937,-0.0937,-0.0937,-0.0937,-0.0937,-0.0937,0.0049,0.0116,0.014,0.0306,0.0375,0.0517,0.0603,0.0753,0.0867,0.1054,0.1121,0.1115,0.0756,-0.0285,-0.1048,-0.1244,-0.1505,-0.1522,-0.1692,-0.1501,-0.1492,-0.1483,-0.1489,-0.1583,-0.1584,-0.1962,-0.1966,-0.1969]}],[{"header":{"parameterUnit":"m.s-1","parameterCategory":2,"la1":30.2991,"la2":30.254,"lo1":-89.0895,"lo2":-89.0444,"dy":0.0017,"dx":0.0017,"nx":28,"ny":28,"refTime":"2024-03-16T09:00:00:Z","depth":"2","parameterNumber":2,"parameterNumberName":"U-component_of_CURRENTS"},"data":[0,0,0,0,0,0,0,0,0,0,0,0,0,0,0,0,0,0,0,0,0,0,0,0,0,0,0,0,0,0,0,0,0,0,0,0,0,0,0,0,0,0,0,0,0,0,0,0,0,0,0,0,0,0,0,0,0,0,0.1743,0.1744,0,0.1781,0.1781,0.1782,0.1788,0.1788,0.1788,0.1787,0.1796,0.1796,0.1797,0,0,0,0,0,0,0,0,0,0,0,0,0,0.1686,0.1687,0.1743,0.1744,0.1744,0.1781,0.1781,0.1782,0.1788,0.1788,0.1788,0.1787,0.1796,0.1796,0.1797,0,0,0,0,0,0,0,0,0,0,0,0,0,0.1715,0.1687,0.1743,0.1753,0.1754,0.1781,0.1781,0.1782,0.1788,0.1788,0.1787,0.1787,0.1796,0.1796,0.1797,0.1808,0,0,0.1799,0.1799,0,0,0,0,0,0,0,0,0.1713,0.1717,0.1751,0.1752,0.1754,0.178,0.1764,0.179,0.1788,0.1774,0.1787,0.1787,0.1789,0.179,0.1797,0.1808,0.1809,0.1799,0.1799,0.18,0.18,0,0,0,0,0,0,0,0.1711,0.1715,0.1757,0.1751,0.1753,0.1758,0.1762,0.1769,0.1782,0.1775,0.1776,0.1782,0.1789,0.1796,0.1797,0.1809,0.1799,0.18,0.18,0.18,0.1872,0.1873,0,0,0,0,0,0,0.1709,0.1713,0.1756,0.1758,0.1733,0.176,0.1764,0.1771,0.1782,0.1784,0.1782,0.1782,0.1795,0.1796,0.1797,0.1852,0.18,0.18,0.1801,0.187,0.1872,0.1874,0,0,0,0,0,0,0.1707,0.1712,0.1754,0.1737,0.1743,0.1761,0.177,0.1772,0.1787,0.1788,0.1789,0.1795,0.1795,0.1797,0.1821,0.185,0.1801,0.1801,0.1868,0.1871,0.1873,0.1934,0,0,0,0,0,0,0.1705,0.1711,0.1718,0.1737,0.1744,0.178,0.177,0.1773,0.1791,0.1791,0.1799,0.1799,0.1795,0.182,0.1822,0.185,0.1802,0.1866,0.1869,0.1872,0.193,0.1938,0.1945,0,0,0,0,0,0.1703,0.1713,0.1718,0.1724,0.1752,0.1781,0.1785,0.1796,0.1792,0.1806,0.1814,0.1799,0.1839,0.1822,0.1823,0.1853,0.1865,0.1869,0.1872,0.1927,0.1937,0.1945,0,0,0,0,0,0,0.1685,0.1716,0.1721,0.1738,0.1763,0.1783,0.1795,0.1802,0.182,0.1819,0.1817,0.1819,0.185,0.1845,0.1826,0.1883,0.185,0.1854,0.1892,0.1901,0.1908,0.1915,0.1802,0,0,0,0,0,0.1686,0.1705,0.1733,0.1746,0.176,0.178,0.1792,0.1802,0.1819,0.1827,0.1835,0.1846,0.1865,0.1877,0.1886,0.1918,0.1926,0.1938,0.1946,0.1952,0.196,0.1998,0.201,0.1885,0.1885,0.1884,0,0,0.1681,0.1701,0.1711,0.1745,0.1762,0.1797,0.1786,0.1811,0.184,0.1825,0.1862,0.1869,0.1878,0.1915,0.1929,0.1915,0.1996,0.1956,0.1962,0.1966,0.2003,0.2015,0.2026,0.1887,0.1886,0.1886,0,0,0.1689,0.1702,0.1726,0.1753,0.1788,0.1807,0.1817,0.1847,0.186,0.1897,0.1897,0.1925,0.1948,0.1969,0.1981,0.2035,0.203,0.2038,0.2086,0.2124,0.2134,0.2144,0.2183,0.2195,0.2046,0.2046,0.2046,0,0.1682,0.1719,0.1737,0.1772,0.18,0.1816,0.1854,0.1874,0.1908,0.1932,0.1915,0.1977,0.1977,0.2038,0.2057,0.2053,0.2073,0.205,0.2134,0.2143,0.2151,0.2189,0.2202,0.2049,0.2049,0.2048,0.2048,0,0.1715,0.1748,0.1765,0.1821,0.1852,0.1885,0.1921,0.1951,0.1967,0.1992,0.2046,0.2054,0.2094,0.21,0.2094,0.2163,0.2158,0.2135,0.211,0.2168,0.2204,0.2217,0.2054,0.2053,0.2052,0.2051,0,0,0.1693,0.1774,0.1782,0.1818,0.1882,0.1911,0.1966,0.2027,0.2066,0.2096,0.2151,0.2187,0.2192,0.2206,0.2206,0.2237,0.2313,0.2216,0.2217,0.2254,0.2407,0.2397,0.2409,0.2305,0.2307,0.2309,0.2413,0,0.1716,0.1788,0.1828,0.19,0.1941,0.1985,0.2037,0.2092,0.2128,0.2182,0.2208,0.225,0.2233,0.225,0.2286,0.2299,0.2346,0.2287,0.2346,0.2348,0.2331,0.2423,0.2224,0.2298,0.2424,0.2426,0.2428,0,0.1741,0.1788,0.1858,0.1948,0.197,0.2012,0.2101,0.2152,0.2231,0.2262,0.2318,0.2329,0.2392,0.2351,0.2433,0.2398,0.2416,0.2423,0.2426,0.2403,0.2361,0.2259,0.2315,0.2448,0.2446,0.2445,0.2443,0,0.1718,0.1812,0.1867,0.1897,0.1996,0.2033,0.2088,0.2172,0.2219,0.2308,0.2342,0.2419,0.2441,0.2489,0.2508,0.2479,0.2587,0.2545,0.2562,0.2561,0.2395,0.2377,0.2615,0.2615,0.2615,0.2614,0.2614,0,0.1728,0.1773,0.1856,0.1884,0.1947,0.2025,0.2093,0.2159,0.2249,0.231,0.2372,0.2432,0.2473,0.2531,0.2553,0.2609,0.2633,0.2598,0.2598,0.2413,0.2396,0.2516,0.2503,0.2618,0.2617,0.2617,0.2616,0,0.1693,0.1752,0.1809,0.1903,0.1932,0.1973,0.2076,0.2121,0.222,0.2298,0.2326,0.2446,0.2544,0.2588,0.2666,0.2656,0.271,0.2721,0.2508,0.2482,0.2649,0.2638,0.2763,0.2763,0.2764,0.2765,0.2765,0,0.1685,0.1711,0.1793,0.1812,0.1849,0.1919,0.196,0.2083,0.2133,0.2311,0.234,0.2472,0.2549,0.2679,0.27,0.276,0.2774,0.2593,0.2503,0.2683,0.267,0.2658,0.2646,0.2309,0.2306,0.2303,0.2301,0,0.166,0.1681,0.1718,0.1751,0.1787,0.1841,0.1913,0.1952,0.2101,0.2176,0.2311,0.2399,0.2549,0.2535,0.2615,0.2623,0.2568,0.2543,0.2791,0.2309,0.2265,0.2249,0.225,0.2277,0.2279,0.2281,0.2282,0.2283,0.162,0.1624,0.1659,0.1685,0.1722,0.1755,0.1784,0.1864,0.1947,0.2041,0.2178,0.224,0.2316,0.2358,0.2347,0.2356,0.2522,0.2396,0.24,0.2408,0.2343,0.2304,0.2311,0.2313,0.2315,0.2317,0.2319,0,0.1557,0.1571,0.1595,0.1617,0.1625,0.168,0.1745,0.1748,0.181,0.1902,0.1973,0.1861,0.1902,0.2009,0.1997,0.2042,0.1974,0.1965,0.1836,0.1865,0.1889,0.1791,0.1616,0.1613,0.1611,0.1608,0,0,0.1519,0.1512,0.1527,0.1519,0.1539,0.1554,0.1583,0.1583,0.1635,0.1618,0.1636,0.1742,0.1915,0.1681,0.1712,0.1661,0.1732,0.1609,0.2181,0.2055,0.2075,0.2163,0.2051,0,0,0,0,0]},{"header":{"parameterUnit":"m.s-1","parameterCategory":2,"la1":30.2991,"la2":30.254,"lo1":-89.0895,"lo2":-89.0444,"dy":0.0017,"dx":0.0017,"nx":28,"ny":28,"refTime":"2024-03-16T09:00:00:Z","depth":"2","parameterNumber":3,"parameterNumberName":"V-component_of_CURRENTS"},"data":[0,0,0,0,0,0,0,0,0,0,0,0,0,0,0,0,0,0,0,0,0,0,0,0,0,0,0,0,0,0,0,0,0,0,0,0,0,0,0,0,0,0,0,0,0,0,0,0,0,0,0,0,0,0,0,0,0,0,-0.0228,-0.0228,0,-0.0295,-0.0295,-0.0296,-0.0352,-0.0353,-0.0353,-0.0354,-0.0459,-0.0461,-0.0463,0,0,0,0,0,0,0,0,0,0,0,0,0,-0.0197,-0.0197,-0.0228,-0.0228,-0.0229,-0.0294,-0.0295,-0.0297,-0.0352,-0.0353,-0.0353,-0.0354,-0.0458,-0.0461,-0.0464,0,0,0,0,0,0,0,0,0,0,0,0,0,-0.0233,-0.0197,-0.0228,-0.0263,-0.0267,-0.0294,-0.0295,-0.0297,-0.0352,-0.0353,-0.0353,-0.0354,-0.0457,-0.046,-0.0464,-0.0473,0,0,-0.0475,-0.0476,0,0,0,0,0,0,0,0,-0.0231,-0.0234,-0.0257,-0.0261,-0.0265,-0.0314,-0.0323,-0.0357,-0.0352,-0.0322,-0.0354,-0.0354,-0.0412,-0.042,-0.0433,-0.0478,-0.0482,-0.0475,-0.0477,-0.0479,-0.048,0,0,0,0,0,0,0,-0.0228,-0.0232,-0.0256,-0.0258,-0.0263,-0.0293,-0.0298,-0.033,-0.0364,-0.0324,-0.0328,-0.0333,-0.0415,-0.0429,-0.0435,-0.0484,-0.0475,-0.0478,-0.048,-0.0482,-0.0564,-0.0564,0,0,0,0,0,0,-0.0213,-0.0229,-0.0254,-0.0258,-0.0247,-0.0292,-0.0299,-0.0299,-0.0363,-0.0373,-0.0332,-0.0335,-0.0422,-0.0431,-0.0439,-0.0478,-0.0479,-0.0482,-0.0484,-0.0564,-0.0564,-0.0564,0,0,0,0,0,0,-0.0212,-0.0214,-0.0251,-0.0244,-0.0251,-0.0292,-0.0292,-0.03,-0.0322,-0.0368,-0.0379,-0.0346,-0.0423,-0.0434,-0.0469,-0.0482,-0.0484,-0.0487,-0.0564,-0.0564,-0.0564,-0.054,0,0,0,0,0,0,-0.0211,-0.0214,-0.0213,-0.0243,-0.025,-0.0265,-0.0291,-0.0301,-0.0322,-0.0327,-0.0384,-0.0394,-0.0425,-0.0464,-0.0473,-0.0487,-0.049,-0.0564,-0.0564,-0.0564,-0.054,-0.0539,-0.0538,0,0,0,0,0,-0.0209,-0.02,-0.0212,-0.0215,-0.0246,-0.0265,-0.0271,-0.0304,-0.0322,-0.0327,-0.0366,-0.0392,-0.0471,-0.0467,-0.0477,-0.0492,-0.0564,-0.0564,-0.0564,-0.0541,-0.0539,-0.0538,0,0,0,0,0,0,-0.0182,-0.0205,-0.0219,-0.0217,-0.0239,-0.0273,-0.0279,-0.0304,-0.0338,-0.0344,-0.0393,-0.0405,-0.0443,-0.0465,-0.0459,-0.0515,-0.0522,-0.0524,-0.0501,-0.0499,-0.0498,-0.0491,-0.0493,0,0,0,0,0,-0.0174,-0.0177,-0.0204,-0.0202,-0.021,-0.0246,-0.0259,-0.028,-0.0312,-0.0329,-0.0369,-0.041,-0.045,-0.0472,-0.0506,-0.0534,-0.0553,-0.055,-0.0549,-0.0547,-0.0548,-0.0592,-0.0595,-0.0565,-0.0565,-0.0565,0,0,-0.0164,-0.0175,-0.0178,-0.0197,-0.0216,-0.0228,-0.0256,-0.027,-0.0283,-0.0334,-0.0365,-0.0408,-0.0455,-0.049,-0.0509,-0.0512,-0.056,-0.0548,-0.0546,-0.0548,-0.0593,-0.0596,-0.0599,-0.0565,-0.0565,-0.0565,0,0,-0.0141,-0.0152,-0.0149,-0.0165,-0.0188,-0.0211,-0.0214,-0.025,-0.027,-0.0302,-0.0345,-0.039,-0.0446,-0.0484,-0.0511,-0.052,-0.0552,-0.0534,-0.0524,-0.0567,-0.057,-0.0573,-0.0575,-0.0579,-0.0533,-0.0533,-0.0533,0,-0.0129,-0.0124,-0.0151,-0.0152,-0.0162,-0.0202,-0.0202,-0.0227,-0.0272,-0.0288,-0.0306,-0.0403,-0.0443,-0.0495,-0.0502,-0.0518,-0.0536,-0.0527,-0.0565,-0.0569,-0.0572,-0.0575,-0.0579,-0.0532,-0.0532,-0.0532,-0.0532,0,-0.0105,-0.0105,-0.0101,-0.012,-0.0137,-0.0138,-0.0175,-0.0179,-0.0211,-0.0261,-0.0315,-0.0375,-0.0436,-0.0457,-0.0487,-0.0535,-0.0535,-0.0558,-0.0569,-0.0574,-0.0576,-0.058,-0.053,-0.053,-0.0531,-0.0531,0,0,-0.0068,-0.0082,-0.0082,-0.0081,-0.0116,-0.0124,-0.0127,-0.0156,-0.0163,-0.0232,-0.0256,-0.0348,-0.0405,-0.0438,-0.0486,-0.0525,-0.056,-0.0553,-0.0555,-0.0553,-0.0631,-0.0577,-0.0577,-0.0598,-0.06,-0.0601,-0.0613,0,-0.004,-0.0024,-0.005,-0.0045,-0.0039,-0.0065,-0.0081,-0.0117,-0.0147,-0.018,-0.0263,-0.032,-0.0393,-0.0417,-0.048,-0.0534,-0.0576,-0.0553,-0.0629,-0.063,-0.0581,-0.0582,-0.0559,-0.0564,-0.0618,-0.0619,-0.0619,0,-0.0013,-0.0,0.0015,0.0002,-0.0003,-0.0018,-0.0021,-0.0043,-0.01,-0.0125,-0.02,-0.0268,-0.0347,-0.0397,-0.0522,-0.0506,-0.0574,-0.0616,-0.0619,-0.0583,-0.0586,-0.0574,-0.0571,-0.0628,-0.0627,-0.0626,-0.0626,0,0.0039,0.004,0.0058,0.0055,0.003,0.0035,0.001,-0.0035,-0.0038,-0.0091,-0.0093,-0.0222,-0.0262,-0.0377,-0.0484,-0.0506,-0.0595,-0.0634,-0.0649,-0.0644,-0.0645,-0.0638,-0.0726,-0.0726,-0.0726,-0.0726,-0.0726,0,0.0084,0.0097,0.0084,0.0099,0.0112,0.006,0.0068,0.0048,0.0013,0.0016,-0.0088,-0.0086,-0.0263,-0.0334,-0.0452,-0.055,-0.058,-0.0641,-0.0651,-0.0631,-0.0623,-0.0702,-0.0699,-0.0727,-0.0727,-0.0727,-0.0727,0,0.0127,0.0126,0.0151,0.0141,0.0139,0.0138,0.0123,0.0133,0.0089,0.0117,0.0108,0.0012,-0.0066,-0.0216,-0.0368,-0.0482,-0.0585,-0.0617,-0.0556,-0.0558,-0.0612,-0.0608,-0.0633,-0.0631,-0.063,-0.0628,-0.0627,0,0.015,0.0165,0.0188,0.0212,0.0208,0.0211,0.0219,0.018,0.0206,0.0196,0.022,0.0152,0.015,-0.0053,-0.0268,-0.0437,-0.0508,-0.0533,-0.0581,-0.0599,-0.0606,-0.0604,-0.0602,-0.0566,-0.0565,-0.0564,-0.0563,0,0.0184,0.0187,0.0215,0.0272,0.0296,0.0329,0.0342,0.0394,0.0376,0.0423,0.0475,0.048,0.0278,0.0109,-0.0147,-0.0281,-0.0504,-0.0512,-0.0568,-0.0581,-0.0535,-0.0542,-0.0543,-0.0553,-0.0554,-0.0555,-0.0555,-0.0556,0.0207,0.0235,0.0276,0.033,0.0374,0.0447,0.0508,0.0558,0.0643,0.0715,0.069,0.0693,0.0445,0.014,-0.0101,-0.0388,-0.039,-0.0498,-0.0503,-0.0509,-0.0487,-0.0439,-0.0433,-0.0433,-0.0434,-0.0434,-0.0434,0,0.0244,0.0279,0.0328,0.0415,0.0489,0.0487,0.0594,0.0669,0.0825,0.0859,0.092,0.0733,0.053,0.0232,-0.0168,-0.0386,-0.045,-0.0464,-0.0505,-0.0511,-0.0518,-0.0499,-0.0448,-0.0449,-0.045,-0.045,0,0,0.0271,0.0336,0.0367,0.0502,0.0564,0.0683,0.0767,0.0877,0.0935,0.1014,0.0998,0.094,0.0608,0.0321,0.0005,-0.0225,-0.0324,-0.0275,-0.0236,-0.0253,-0.0257,-0.0505,-0.0478,0,0,0,0,0]}],[{"header":{"parameterUnit":"m.s-1","parameterCategory":2,"la1":30.2991,"la2":30.254,"lo1":-89.0895,"lo2":-89.0444,"dy":0.0017,"dx":0.0017,"nx":28,"ny":28,"refTime":"2024-03-16T09:00:00:Z","depth":"4","parameterNumber":2,"parameterNumberName":"U-component_of_CURRENTS"},"data":[0,0,0,0,0,0,0,0,0,0,0,0,0,0,0,0,0,0,0,0,0,0,0,0,0,0,0,0,0,0,0,0,0,0,0,0,0,0,0,0,0,0,0,0,0,0,0,0,0,0,0,0,0,0,0,0,0,0,0.1078,0.1079,0,0.1134,0.1135,0.1135,0.1183,0.1184,0.1185,0.1185,0.1251,0.1252,0.1254,0,0,0,0,0,0,0,0,0,0,0,0,0,0.1002,0.1003,0.1078,0.1079,0.108,0.1134,0.1135,0.1136,0.1183,0.1184,0.1185,0.1186,0.1251,0.1252,0.1254,0,0,0,0,0,0,0,0,0,0,0,0,0,0.1043,0.1003,0.1078,0.1111,0.1115,0.1134,0.1135,0.1136,0.1183,0.1184,0.1185,0.1186,0.125,0.1252,0.1254,0.1245,0,0,0.1259,0.126,0,0,0,0,0,0,0,0,0.104,0.1045,0.1105,0.1109,0.1113,0.1154,0.1132,0.1173,0.1183,0.1156,0.1185,0.1186,0.122,0.1224,0.123,0.1248,0.125,0.1259,0.126,0.1261,0.1261,0,0,0,0,0,0,0,0.1038,0.1043,0.1099,0.1106,0.1111,0.112,0.1127,0.114,0.1181,0.1158,0.1162,0.117,0.1222,0.1229,0.1232,0.1251,0.1259,0.1261,0.1262,0.1262,0.1353,0.1354,0,0,0,0,0,0,0.1033,0.1041,0.1097,0.1101,0.108,0.1121,0.1128,0.1139,0.118,0.1188,0.1169,0.1172,0.1225,0.123,0.1235,0.1304,0.1261,0.1263,0.1264,0.1352,0.1353,0.1355,0,0,0,0,0,0,0.1031,0.1038,0.1095,0.1073,0.1081,0.1121,0.1132,0.1139,0.1173,0.1189,0.1197,0.1199,0.1226,0.1232,0.1268,0.1304,0.1263,0.1265,0.135,0.1352,0.1354,0.1393,0,0,0,0,0,0,0.1029,0.1037,0.1055,0.1073,0.1082,0.1123,0.1132,0.114,0.1175,0.1181,0.1216,0.1222,0.1227,0.1266,0.127,0.1306,0.1266,0.1348,0.1351,0.1354,0.139,0.1396,0.1402,0,0,0,0,0,0.1026,0.1043,0.1055,0.1063,0.1102,0.1123,0.113,0.116,0.1176,0.1193,0.1218,0.1222,0.1286,0.1268,0.1273,0.131,0.1347,0.135,0.1353,0.1388,0.1395,0.1402,0,0,0,0,0,0,0.1023,0.105,0.1064,0.109,0.1113,0.1133,0.1154,0.1172,0.1205,0.1218,0.1232,0.1239,0.1283,0.129,0.127,0.1345,0.132,0.1325,0.1345,0.1352,0.1358,0.135,0.1268,0,0,0,0,0,0.1029,0.105,0.1073,0.1097,0.1108,0.1135,0.1153,0.1174,0.1199,0.1216,0.1241,0.127,0.1294,0.1319,0.1334,0.1374,0.138,0.1404,0.141,0.1415,0.1413,0.1452,0.146,0.1365,0.1365,0.1365,0,0,0.1034,0.1053,0.1066,0.1099,0.1118,0.1133,0.1149,0.1182,0.1206,0.1216,0.1264,0.1285,0.1306,0.1349,0.1371,0.1365,0.1448,0.1419,0.1422,0.1418,0.1456,0.1465,0.1473,0.1367,0.1367,0.1367,0,0,0.1042,0.1072,0.1085,0.1104,0.1139,0.1152,0.1166,0.12,0.1231,0.1272,0.1287,0.1328,0.1371,0.1394,0.141,0.1457,0.1468,0.1476,0.151,0.1549,0.1557,0.1563,0.159,0.1599,0.1489,0.1489,0.1489,0,0.1049,0.1069,0.1094,0.1109,0.1126,0.1161,0.1175,0.1207,0.1253,0.1284,0.1295,0.1367,0.1389,0.1438,0.1464,0.147,0.1492,0.1481,0.1556,0.1563,0.1569,0.1595,0.1604,0.1492,0.1491,0.1491,0.1491,0,0.1052,0.108,0.1091,0.1118,0.1139,0.1162,0.1198,0.1242,0.1284,0.1315,0.1381,0.141,0.1463,0.1479,0.1491,0.1556,0.1557,0.1549,0.1535,0.1581,0.1605,0.1615,0.1495,0.1494,0.1493,0.1493,0,0,0.1037,0.1084,0.109,0.1106,0.1149,0.1163,0.1216,0.1267,0.1314,0.1366,0.1427,0.1477,0.1513,0.1534,0.1559,0.1593,0.1667,0.1604,0.1605,0.1626,0.1755,0.165,0.165,0.1681,0.1683,0.1684,0.1756,0,0.1033,0.106,0.1086,0.1115,0.1129,0.1181,0.1223,0.128,0.1342,0.1412,0.1463,0.1523,0.153,0.1574,0.1614,0.1663,0.1692,0.1647,0.1712,0.1713,0.161,0.1657,0.169,0.1763,0.1765,0.1766,0.1767,0,0.1019,0.1043,0.107,0.1121,0.1133,0.1163,0.1244,0.1293,0.1396,0.1451,0.1527,0.1568,0.1654,0.164,0.174,0.172,0.1743,0.1757,0.176,0.1651,0.1625,0.1707,0.1784,0.1782,0.1781,0.178,0.1779,0,0.0978,0.1028,0.1052,0.1068,0.113,0.1172,0.1222,0.1315,0.1367,0.1494,0.1544,0.1638,0.1708,0.1753,0.1809,0.1795,0.1891,0.1875,0.1785,0.1778,0.1833,0.1825,0.1913,0.1913,0.1912,0.1912,0.1912,0,0.0947,0.0967,0.1045,0.1055,0.1099,0.1161,0.1228,0.1302,0.1409,0.1467,0.1573,0.1618,0.1742,0.1808,0.1836,0.1849,0.1923,0.1793,0.1791,0.1849,0.1842,0.184,0.1831,0.1915,0.1914,0.1914,0.1913,0,0.0886,0.0936,0.0968,0.1049,0.1079,0.1119,0.122,0.1262,0.1387,0.1473,0.1516,0.1646,0.1737,0.1818,0.1906,0.1877,0.1895,0.1865,0.193,0.193,0.175,0.1742,0.1786,0.1783,0.178,0.1778,0.1776,0,0.0851,0.0859,0.095,0.0976,0.1018,0.109,0.1125,0.1243,0.1295,0.1457,0.1484,0.1612,0.1685,0.1733,0.1822,0.1874,0.1842,0.1848,0.1784,0.1745,0.1739,0.1735,0.1731,0.1772,0.1772,0.1771,0.177,0,0.0773,0.0818,0.0855,0.0919,0.0962,0.1003,0.1083,0.1107,0.1246,0.1349,0.1426,0.1487,0.1582,0.1662,0.1721,0.174,0.1853,0.182,0.1825,0.1764,0.1728,0.1724,0.1723,0.1761,0.1762,0.1763,0.1764,0,0.0723,0.074,0.0804,0.0855,0.0903,0.0932,0.0971,0.1035,0.1099,0.1282,0.1292,0.143,0.155,0.159,0.1633,0.1668,0.1643,0.1597,0.1613,0.1624,0.154,0.1468,0.1423,0,0,0,0,0,0.0676,0.0699,0.0731,0.0796,0.0839,0.0879,0.0948,0.0993,0.1111,0.1128,0.1221,0.1295,0.1385,0.1448,0.1455,0.1568,0.1651,0.1569,0.1606,0.1711,0.1721,0.1638,0,0,0,0,0,0,0.0648,0.0684,0.0712,0.0738,0.0771,0.0814,0.0855,0.0927,0.0954,0.1078,0.1127,0.1229,0.1327,0.1379,0.1436,0.146,0.146,0.1656,0.1653,0.1705,0.1714,0.1723,0.1641,0,0,0,0,0]},{"header":{"parameterUnit":"m.s-1","parameterCategory":2,"la1":30.2991,"la2":30.254,"lo1":-89.0895,"lo2":-89.0444,"dy":0.0017,"dx":0.0017,"nx":28,"ny":28,"refTime":"2024-03-16T09:00:00:Z","depth":"4","parameterNumber":3,"parameterNumberName":"V-component_of_CURRENTS"},"data":[0,0,0,0,0,0,0,0,0,0,0,0,0,0,0,0,0,0,0,0,0,0,0,0,0,0,0,0,0,0,0,0,0,0,0,0,0,0,0,0,0,0,0,0,0,0,0,0,0,0,0,0,0,0,0,0,0,0,0.0074,0.0073,0,0.0028,0.0027,0.0027,-0.0008,-0.0009,-0.0009,-0.0009,-0.0076,-0.0078,-0.0079,0,0,0,0,0,0,0,0,0,0,0,0,0,0.0111,0.0111,0.0074,0.0073,0.0073,0.0028,0.0027,0.0027,-0.0008,-0.0009,-0.0009,-0.0009,-0.0076,-0.0078,-0.0079,0,0,0,0,0,0,0,0,0,0,0,0,0,0.0083,0.0111,0.0074,0.005,0.0047,0.0028,0.0027,0.0027,-0.0008,-0.0009,-0.0009,-0.001,-0.0075,-0.0078,-0.008,-0.0084,0,0,-0.0087,-0.0088,0,0,0,0,0,0,0,0,0.0085,0.0082,0.0054,0.0052,0.0049,0.0015,0.0016,-0.0012,-0.0008,0.0013,-0.0009,-0.001,-0.0047,-0.0052,-0.0059,-0.0087,-0.009,-0.0087,-0.0088,-0.0089,-0.009,0,0,0,0,0,0,0,0.0087,0.0083,0.0056,0.0054,0.005,0.0035,0.003,0.001,-0.0015,0.0011,0.0008,0.0004,-0.0049,-0.0057,-0.0061,-0.0091,-0.0087,-0.0089,-0.009,-0.0091,-0.0133,-0.0132,0,0,0,0,0,0,0.0094,0.0085,0.0057,0.0054,0.0066,0.0034,0.003,0.0026,-0.0014,-0.002,0.0004,0.0002,-0.0053,-0.0059,-0.0064,-0.0054,-0.0089,-0.0091,-0.0092,-0.0133,-0.0132,-0.0132,0,0,0,0,0,0,0.0095,0.0092,0.0059,0.0069,0.0063,0.0035,0.0031,0.0026,0.0016,-0.0019,-0.0026,-0.0001,-0.0054,-0.0061,-0.0076,-0.0058,-0.0092,-0.0094,-0.0133,-0.0133,-0.0132,-0.0046,0,0,0,0,0,0,0.0097,0.0093,0.0094,0.0069,0.0063,0.0053,0.0031,0.0025,0.0014,0.0011,-0.0025,-0.0032,-0.0055,-0.0072,-0.0078,-0.0061,-0.0096,-0.0133,-0.0133,-0.0132,-0.0049,-0.0043,-0.0037,0,0,0,0,0,0.0098,0.0102,0.0094,0.0091,0.0065,0.0054,0.0049,0.0027,0.0014,0.0015,-0.0008,-0.0031,-0.0074,-0.0074,-0.0081,-0.0064,-0.0134,-0.0133,-0.0133,-0.0052,-0.0044,-0.0037,0,0,0,0,0,0,0.0114,0.0098,0.0089,0.0086,0.0074,0.0048,0.0045,0.003,0.0012,0.0009,-0.0025,-0.0033,-0.0042,-0.0068,-0.0067,-0.0077,-0.0109,-0.0109,-0.0045,-0.0038,-0.0032,0.0011,-0.0098,0,0,0,0,0,0.012,0.0122,0.0101,0.0101,0.0096,0.0072,0.0064,0.005,0.0031,0.0022,-0.0004,-0.003,-0.0045,-0.0053,-0.0077,-0.0078,-0.0103,-0.0075,-0.0069,-0.0064,-0.0035,-0.0067,-0.0061,-0.013,-0.013,-0.013,0,0,0.0125,0.0118,0.0117,0.0105,0.0093,0.0102,0.0066,0.0059,0.0072,0.0018,0.0022,-0.0012,-0.0043,-0.0044,-0.005,-0.0062,-0.006,-0.0063,-0.0058,-0.0032,-0.0066,-0.0059,-0.0052,-0.013,-0.013,-0.013,0,0,0.0147,0.0131,0.0145,0.0144,0.0133,0.0121,0.0122,0.0098,0.0092,0.009,0.0057,0.0039,0.0008,-0.0002,-0.0012,0.0011,-0.0031,-0.0006,0.0066,0.0035,0.0041,0.0046,0.0016,0.0018,0.0002,0.0002,0.0002,0,0.0154,0.0173,0.0146,0.0166,0.0176,0.0135,0.0162,0.0151,0.0127,0.0133,0.0102,0.0074,0.0035,0.0056,0.0062,0.0029,0.0003,0.0045,0.0045,0.005,0.0054,0.0021,0.0022,0.0006,0.0006,0.0005,0.0005,0,0.0195,0.0212,0.022,0.0238,0.0241,0.0255,0.0243,0.024,0.0222,0.0213,0.0216,0.0168,0.0153,0.0135,0.0109,0.0124,0.0093,0.0054,0.0034,0.0066,0.0029,0.0029,0.0012,0.0011,0.0009,0.0008,0,0,0.021,0.0244,0.0249,0.0279,0.0286,0.0294,0.0318,0.0332,0.0351,0.0324,0.0347,0.0322,0.0287,0.0274,0.0231,0.0215,0.0203,0.0157,0.0153,0.0141,0.0137,0.0093,0.0087,0.0162,0.0163,0.0163,0.0098,0,0.0255,0.0314,0.0319,0.0378,0.0409,0.0398,0.0428,0.0435,0.042,0.0423,0.0392,0.0385,0.0343,0.0326,0.0309,0.0214,0.0207,0.0225,0.0097,0.0094,0.0061,0.0087,0.0165,0.0098,0.0097,0.0097,0.0097,0,0.03,0.0336,0.0406,0.0463,0.0476,0.0505,0.0543,0.0565,0.0563,0.0549,0.0543,0.0494,0.047,0.0416,0.0326,0.0335,0.0262,0.0199,0.0193,0.013,0.0049,0.0057,0.0095,0.0096,0.0096,0.0096,0.0096,0,0.0334,0.0399,0.0461,0.0482,0.0534,0.0567,0.0593,0.0607,0.0629,0.0623,0.062,0.0582,0.0542,0.0461,0.0322,0.0318,0.021,0.0172,0.0082,0.0077,0.0098,0.0093,0.014,0.014,0.014,0.014,0.014,0,0.0384,0.0435,0.0484,0.052,0.0593,0.0616,0.0681,0.0693,0.0709,0.0728,0.0688,0.0676,0.055,0.0461,0.035,0.0208,0.0224,0.0114,0.0065,0.0133,0.0132,0.0097,0.0093,0.0138,0.0138,0.0139,0.0139,0,0.0415,0.045,0.0521,0.0587,0.0612,0.0663,0.0732,0.0765,0.0782,0.0797,0.0794,0.0733,0.0613,0.0486,0.0325,0.0231,0.0101,0.0055,0.0146,0.0099,-0.0014,-0.0013,-0.0047,-0.0049,-0.0051,-0.0052,-0.0054,0,0.044,0.0483,0.056,0.0597,0.063,0.0705,0.075,0.0794,0.0813,0.0822,0.0816,0.0732,0.0666,0.0423,0.0289,0.0087,0.0061,-0.0003,0.0006,0.0016,-0.0029,-0.0025,-0.0022,-0.0056,-0.0057,-0.0057,-0.0057,0,0.0484,0.0507,0.0552,0.062,0.0675,0.0742,0.0798,0.082,0.0852,0.0871,0.0811,0.0702,0.0574,0.04,0.0245,0.0103,0.0033,-0.0021,-0.0018,-0.001,0.0004,-0.0037,-0.0033,-0.0063,-0.0062,-0.0062,-0.0061,0,0.0497,0.0525,0.0569,0.0626,0.0694,0.0739,0.0787,0.0799,0.0826,0.0823,0.0797,0.0683,0.0617,0.0408,0.0263,0.0116,0.0083,0.0031,0.0031,0.0035,0.0074,0.0105,0.0043,0,0,0,0,0,0.0498,0.0514,0.0571,0.0616,0.0682,0.0716,0.079,0.0827,0.0857,0.0806,0.0799,0.0675,0.0469,0.0399,0.0243,0.0233,0.006,0.0046,0.0001,-0.0095,-0.0088,-0.0061,0,0,0,0,0,0,0.0486,0.053,0.0552,0.0593,0.062,0.0684,0.0733,0.0764,0.0737,0.0751,0.0648,0.061,0.0419,0.0539,0.0226,0.0188,0.0133,-0.0039,-0.0043,-0.0098,-0.0092,-0.0087,-0.0057,0,0,0,0,0]}]]